FENGYUN 2A DEB

基本信息
目录编号:
43355
目录名称:
FENGYUN 2A DEB
国际标识:
1997-029D
轨道中心:
EARTH
物体状态:
在轨
发射日期:
1997-06-10 UTC
轨道信息
数据来源: 国际轨道数据
星历时间: 2026-07-14T05:25:55+0800
半长轴: 42159.459km
偏心率: 0.0098852
轨道倾角: 14.851°
近地点辐角: 53.530°
升交点赤经: 356.754°
平近点角: 307.405°
近地点: 35364.567km
远地点: 36198.077km
周期: 1435.827分钟
每日圈数: 1.002906
详细信息
发射场:
XSC
轨道高度:
MEO
数据来源:
AOE Integration Group
参考系:
TEME
时间系统:
UTC
历元类型:
SGP4
2D轨道图
3D轨道图
轨道高度分析图
轨道倾角分析图
轨道综合分析图
查看轨道综合分析图